When you browse on this site, cookies collect data to enhance your experience and personalize the content and advertising you see.
Visit our Privacy Policy to learn more. By continuing to use the site, you agree to this use of cookies and data.
  • In Germany
  • List of Countries
  • For 7 days
  • Water Temperature
  • Weather Map
  • Weather Widgets
  • user-avatar
    Login

    Hourly Weather Kipungo

    Today, 16 September, Monday

    Time Temperature Precipitation Wind Pressure Humidity
    00:00 +16°C° 0 mm 1 mps 652 mmHg 45%
    01:00 +15°C° 0 mm 1 mps 651 mmHg 51%
    02:00 +15°C° 0 mm 1 mps 651 mmHg 51%
    03:00 +15°C° 0 mm 1 mps 651 mmHg 50%
    04:00 +14°C° 0 mm 1 mps 651 mmHg 49%
    05:00 +15°C° 0 mm 1 mps 652 mmHg 47%
    06:00 +16°C° 0 mm 1 mps 653 mmHg 44%
    07:00 +18°C° 0 mm 1 mps 653 mmHg 42%
    08:00 +23°C° 0 mm 1 mps 654 mmHg 31%
    09:00 +28°C° 0 mm 1 mps 655 mmHg 21%
    10:00 +34°C° 0 mm 2 mps 656 mmHg 11%
    11:00 +35°C° 0 mm 2 mps 655 mmHg 11%
    12:00 +37°C° 0 mm 3 mps 655 mmHg 10%
    13:00 +40°C° 0 mm 4 mps 654 mmHg 9%
    14:00 +39°C° 0 mm 3 mps 654 mmHg 9%
    15:00 +39°C° 0 mm 3 mps 654 mmHg 9%
    16:00 +39°C° 0 mm 3 mps 654 mmHg 9%
    17:00 +35°C° 0 mm 2 mps 654 mmHg 12%
    18:00 +31°C° 0 mm 2 mps 653 mmHg 14%
    19:00 +28°C° 0 mm 1 mps 653 mmHg 17%
    20:00 +26°C° 0 mm 2 mps 654 mmHg 25%
    21:00 +25°C° 0 mm 2 mps 654 mmHg 34%
    22:00 +22°C° 0 mm 3 mps 654 mmHg 42%
    23:00 +21°C° 0 mm 2 mps 653 mmHg 49%

    Tomorrow, 17 September, Tuesday

    Time Temperature Precipitation Wind Pressure Humidity
    00:00 +20°C° 0 mm 2 mps 653 mmHg 56%
    01:00 +18°C° 0 mm 2 mps 652 mmHg 63%
    02:00 +18°C° 0 mm 2 mps 652 mmHg 66%
    03:00 +18°C° 0 mm 1 mps 652 mmHg 69%
    04:00 +15°C° 0 mm 0 mps 652 mmHg 72%
    05:00 +18°C° 0 mm 1 mps 652 mmHg 68%
    06:00 +19°C° 0 mm 1 mps 653 mmHg 64%
    07:00 +19°C° 0 mm 1 mps 654 mmHg 60%
    08:00 +24°C° 0 mm 2 mps 654 mmHg 46%
    09:00 +28°C° 0 mm 3 mps 655 mmHg 33%
    10:00 +34°C° 0 mm 4 mps 656 mmHg 19%
    11:00 +35°C° 0 mm 4 mps 655 mmHg 16%
    12:00 +37°C° 0 mm 4 mps 655 mmHg 12%
    13:00 +39°C° 0 mm 3 mps 654 mmHg 9%
    14:00 +39°C° 0 mm 3 mps 654 mmHg 9%
    15:00 +39°C° 0 mm 3 mps 653 mmHg 8%
    16:00 +39°C° 0 mm 3 mps 653 mmHg 7%
    17:00 +35°C° 0 mm 3 mps 653 mmHg 9%
    18:00 +31°C° 0 mm 2 mps 653 mmHg 11%
    19:00 +28°C° 0 mm 2 mps 653 mmHg 13%
    20:00 +25°C° 0 mm 2 mps 653 mmHg 27%
    21:00 +23°C° 0 mm 2 mps 653 mmHg 42%
    22:00 +20°C° 0 mm 2 mps 653 mmHg 56%
    23:00 +18°C° 0 mm 2 mps 652 mmHg 65%

    Day after tomorrow, 18 September, Wednesday

    Time Temperature Precipitation Wind Pressure Humidity
    00:00 +18°C° 0 mm 1 mps 652 mmHg 73%
    01:00 +16°C° 0 mm 1 mps 651 mmHg 81%
    02:00 +15°C° 0 mm 1 mps 651 mmHg 81%
    03:00 +15°C° 0 mm 1 mps 651 mmHg 82%
    04:00 +15°C° 0 mm 1 mps 651 mmHg 82%
    05:00 +16°C° 0 mm 1 mps 652 mmHg 76%
    06:00 +16°C° 0 mm 0 mps 653 mmHg 70%
    07:00 +17°C° 0 mm 0 mps 653 mmHg 64%
    08:00 +23°C° 0 mm 1 mps 654 mmHg 49%
    09:00 +28°C° 0 mm 2 mps 655 mmHg 33%
    10:00 +34°C° 0 mm 3 mps 656 mmHg 17%
    11:00 +35°C° 0 mm 3 mps 655 mmHg 14%
    12:00 +37°C° 0 mm 3 mps 655 mmHg 11%
    13:00 +39°C° 0 mm 3 mps 654 mmHg 8%
    14:00 +39°C° 0 mm 3 mps 654 mmHg 7%
    15:00 +39°C° 0 mm 2 mps 654 mmHg 7%
    16:00 +39°C° 0 mm 2 mps 653 mmHg 6%
    17:00 +35°C° 0 mm 2 mps 653 mmHg 9%
    18:00 +30°C° 0 mm 2 mps 653 mmHg 12%
    19:00 +27°C° 0 mm 2 mps 653 mmHg 15%
    20:00 +24°C° 0 mm 2 mps 653 mmHg 32%
    21:00 +21°C° 0 mm 2 mps 653 mmHg 49%
    22:00 +19°C° 0 mm 2 mps 653 mmHg 66%
    23:00 +18°C° 0 mm 2 mps 652 mmHg 71%

    19 September, Thursday

    Time Temperature Precipitation Wind Pressure Humidity
    00:00 +18°C° 0 mm 1 mps 652 mmHg 77%
    01:00 +14°C° 0 mm 0 mps 651 mmHg 83%
    02:00 +15°C° 0 mm 1 mps 651 mmHg 83%
    03:00 +15°C° 0 mm 1 mps 651 mmHg 82%
    04:00 +15°C° 0 mm 1 mps 652 mmHg 82%
    05:00 +15°C° 0 mm 0 mps 652 mmHg 75%
    06:00 +16°C° 0 mm 0 mps 653 mmHg 68%
    07:00 +17°C° 0 mm 0 mps 654 mmHg 61%
    08:00 +24°C° 0 mm 2 mps 654 mmHg 47%
    09:00 +28°C° 0 mm 3 mps 655 mmHg 32%
    10:00 +34°C° 0 mm 5 mps 656 mmHg 18%
    11:00 +36°C° 0 mm 4 mps 655 mmHg 15%
    12:00 +38°C° 0 mm 4 mps 655 mmHg 13%
    13:00 +40°C° 0 mm 3 mps 654 mmHg 11%
    14:00 +40°C° 0 mm 3 mps 654 mmHg 10%
    15:00 +40°C° 0 mm 2 mps 654 mmHg 10%
    16:00 +40°C° 0 mm 2 mps 653 mmHg 9%
    17:00 +36°C° 0 mm 3 mps 653 mmHg 18%
    18:00 +32°C° 0 mm 4 mps 653 mmHg 27%
    19:00 +27°C° 0 mm 5 mps 653 mmHg 36%
    20:00 +23°C° 0 mm 4 mps 653 mmHg 48%
    21:00 +21°C° 0 mm 4 mps 653 mmHg 60%
    22:00 +18°C° 0 mm 3 mps 653 mmHg 72%
    23:00 +17°C° 0 mm 3 mps 653 mmHg 78%

    20 September, Friday

    Time Temperature Precipitation Wind Pressure Humidity
    00:00 +16°C° 0 mm 3 mps 653 mmHg 84%
    01:00 +15°C° 0 mm 2 mps 653 mmHg 89%
    02:00 +15°C° 0 mm 2 mps 653 mmHg 90%
    03:00 +14°C° 0 mm 1 mps 653 mmHg 91%
    04:00 +14°C° 0 mm 1 mps 652 mmHg 92%
    05:00 +15°C° 0 mm 1 mps 653 mmHg 85%
    06:00 +16°C° 0 mm 1 mps 653 mmHg 77%
    07:00 +18°C° 0 mm 1 mps 654 mmHg 69%
    08:00 +23°C° 0 mm 1 mps 655 mmHg 52%
    09:00 +28°C° 0 mm 1 mps 656 mmHg 35%
    10:00 +33°C° 0 mm 1 mps 657 mmHg 19%
    11:00 +35°C° 0 mm 1 mps 656 mmHg 16%
    12:00 +39°C° 0 mm 1 mps 656 mmHg 13%
    13:00 +42°C° 0 mm 1 mps 656 mmHg 10%
    14:00 +41°C° 0 mm 1 mps 655 mmHg 10%
    15:00 +40°C° 0 mm 1 mps 654 mmHg 10%
    16:00 +39°C° 0 mm 2 mps 653 mmHg 10%
    17:00 +35°C° 0 mm 2 mps 653 mmHg 14%
    18:00 +31°C° 0 mm 2 mps 653 mmHg 18%
    19:00 +27°C° 0 mm 2 mps 653 mmHg 21%
    20:00 +25°C° 0 mm 2 mps 653 mmHg 33%
    21:00 +23°C° 0 mm 2 mps 653 mmHg 45%
    22:00 +20°C° 0 mm 3 mps 653 mmHg 57%
    23:00 +19°C° 0 mm 2 mps 652 mmHg 62%

    21 September, Saturday

    Time Temperature Precipitation Wind Pressure Humidity
    00:00 +17°C° 0 mm 2 mps 652 mmHg 67%
    01:00 +16°C° 0 mm 1 mps 652 mmHg 71%
    02:00 +16°C° 0 mm 1 mps 652 mmHg 72%
    03:00 +16°C° 0 mm 1 mps 652 mmHg 73%
    04:00 +15°C° 0 mm 1 mps 652 mmHg 74%
    05:00 +16°C° 0 mm 1 mps 652 mmHg 69%
    06:00 +18°C° 0 mm 1 mps 653 mmHg 64%
    07:00 +19°C° 0 mm 1 mps 653 mmHg 58%
    08:00 +24°C° 0 mm 1 mps 654 mmHg 44%
    09:00 +30°C° 0 mm 1 mps 655 mmHg 29%
    10:00 +35°C° 0 mm 1 mps 656 mmHg 14%
    11:00 +36°C° 0 mm 1 mps 656 mmHg 12%
    12:00 +39°C° 0 mm 2 mps 655 mmHg 11%
    13:00 +40°C° 0 mm 2 mps 654 mmHg 9%
    14:00 +40°C° 0 mm 2 mps 654 mmHg 9%
    15:00 +40°C° 0 mm 2 mps 653 mmHg 9%
    16:00 +39°C° 0 mm 2 mps 653 mmHg 9%
    17:00 +35°C° 0 mm 3 mps 653 mmHg 15%
    18:00 +32°C° 0 mm 4 mps 652 mmHg 21%
    19:00 +27°C° 0 mm 5 mps 652 mmHg 27%
    20:00 +25°C° 0 mm 4 mps 652 mmHg 38%
    21:00 +21°C° 0 mm 3 mps 652 mmHg 48%
    22:00 +19°C° 0 mm 2 mps 652 mmHg 58%
    23:00 +19°C° 0 mm 1 mps 652 mmHg 62%
    Show more